Denison, IA

4:09 AM CST on January 19, 2017 (GMT -0600)
Denison Municipal

Weather History for KDNS - October, 2013

Change the Weather History Date:

Friday, October 4, 2013

  Actual Average Record
Temperature  
Mean Temperature 67 °F -  
Max Temperature 75 °F 67 °F 89 °F (2005)
Min Temperature 59 °F 45 °F -99 °F (2001)
Cooling Degree Days 2    
Growing Degree Days 17 (Base 50)    
Moisture  
Dew Point 62 °F    
Average Humidity 83    
Maximum Humidity 100    
Minimum Humidity 56    
Precipitation  
Precipitation 0.33 in - - ()
Sea Level Pressure  
Sea Level Pressure 29.77 in    
Wind  
Wind Speed 12 mph (SE)    
Max Wind Speed 20 mph    
Max Gust Speed 30 mph    
Visibility 9 miles    
Events Rain    
Averages and records for this station are not official NWS values.
T = Trace of Precipitation, MM = Missing Value Source: NWS Daily Summary

Daily Weather History Graph

Daily Weather History Graph

Search for Another Location

Airport or City:

Trip Planner

Search our weather history database for the weather conditions in past years. The results will help you decide how hot, cold, wet, or windy it might be!

Date:

Astronomy

Oct. 04, 2013 Rise Set
Actual Time 7:22 AM CDT 6:57 PM CDT
Civil Twilight 6:54 AM CDT 7:25 PM CDT
Nautical Twilight 6:21 AM CDT 7:57 PM CDT
Astronomical Twilight 5:49 AM CDT 8:30 PM CDT
Moon 6:58 AM CDT (10/4) 6:39 PM CDT (10/4)
Length of Visible Light 12h 31m
Length of Day
11h 35m
Waning Crescent, 0% of the Moon is Illuminated
Oct 4
Waning Crescent
Oct 4
New
Oct 11
First Quarter
Oct 18
Full
Oct 26
Last Quarter

Hourly Weather History & Observations

Time (CDT) Temp. Dew Point Humidity Pressure Visibility Wind Dir Wind Speed Gust Speed Precip Events Conditions
12:15 AM 64.4 °F 60.8 °F 88% 29.77 in 10.0 mi NE 13.8 mph - N/A   Overcast
12:35 AM 64.4 °F 60.8 °F 88% 29.80 in 10.0 mi ENE 13.8 mph 20.7 mph N/A   Overcast
12:55 AM 62.6 °F 60.8 °F 94% 29.79 in 4.0 mi NE 5.8 mph 17.3 mph 0.01 in Rain Light Rain
1:15 AM 62.6 °F 60.8 °F 94% 29.86 in 4.0 mi Variable 4.6 mph 12.7 mph N/A Rain Light Rain
1:35 AM 62.6 °F 60.8 °F 94% 29.87 in 2.0 mi NE 4.6 mph - N/A Rain Heavy Rain
1:55 AM 62.6 °F 62.6 °F 100% 29.88 in 2.5 mi NNW 9.2 mph - 0.18 in Rain Heavy Rain
2:15 AM 62.6 °F 62.6 °F 100% 29.85 in 4.0 mi NNE 13.8 mph - N/A Rain Rain
2:35 AM 62.6 °F 62.6 °F 100% 29.84 in 7.0 mi NE 16.1 mph - N/A Rain Light Rain
2:55 AM 62.6 °F 60.8 °F 94% 29.83 in 9.0 mi NE 12.7 mph - 0.03 in   Overcast
3:15 AM 62.6 °F 60.8 °F 94% 29.79 in 9.0 mi East 16.1 mph 21.9 mph N/A   Overcast
3:35 AM 62.6 °F 60.8 °F 94% 29.81 in 9.0 mi East 4.6 mph 12.7 mph N/A Rain Light Rain
3:55 AM 62.6 °F 60.8 °F 94% 29.82 in 5.0 mi North 4.6 mph - 0.03 in Rain Light Rain
4:15 AM 62.6 °F 60.8 °F 94% 29.82 in 4.0 mi East 4.6 mph - N/A Rain Light Rain
4:35 AM 60.8 °F 60.8 °F 100% 29.82 in 10.0 mi Calm Calm - N/A   Overcast
4:55 AM 60.8 °F 60.8 °F 100% 29.79 in 7.0 mi ENE 5.8 mph - 0.01 in Rain Light Rain
5:15 AM 60.8 °F 60.8 °F 100% 29.79 in 9.0 mi ENE 5.8 mph - N/A   Mostly Cloudy
5:35 AM 60.8 °F 60.8 °F 100% 29.82 in 10.0 mi NNE 3.5 mph 12.7 mph N/A   Mostly Cloudy
5:55 AM 60.8 °F 60.8 °F 100% 29.85 in 5.0 mi South 5.8 mph - 0.01 in Rain Light Rain
6:15 AM 60.8 °F 60.8 °F 100% 29.83 in 5.0 mi East 15.0 mph - N/A Rain Light Rain
6:35 AM 60.8 °F 60.8 °F 100% 29.77 in 9.0 mi ENE 19.6 mph 27.6 mph N/A   Mostly Cloudy
6:55 AM 60.8 °F 60.8 °F 100% 29.80 in 10.0 mi East 10.4 mph 17.3 mph 0.01 in   Mostly Cloudy
7:35 AM 60.8 °F 60.8 °F 100% 29.82 in 9.0 mi ESE 9.2 mph 18.4 mph N/A   Overcast
7:55 AM 60.8 °F 60.8 °F 100% 29.79 in 10.0 mi SE 9.2 mph 16.1 mph 0.01 in   Mostly Cloudy
8:15 AM 60.8 °F 60.8 °F 100% 29.78 in 10.0 mi SE 8.1 mph 15.0 mph N/A   Partly Cloudy
8:35 AM 62.6 °F 60.8 °F 94% 29.83 in 10.0 mi South 17.3 mph - N/A   Mostly Cloudy
8:55 AM 62.6 °F 62.6 °F 100% 29.82 in 10.0 mi SSE 17.3 mph 27.6 mph N/A   Overcast
9:15 AM 62.6 °F 60.8 °F 94% 29.80 in 8.0 mi ESE 13.8 mph 21.9 mph N/A Rain Light Rain
9:35 AM 64.4 °F 62.6 °F 94% 29.80 in 10.0 mi SE 13.8 mph 23.0 mph N/A   Overcast
9:55 AM 66.2 °F 62.6 °F 88% 29.78 in 10.0 mi ESE 17.3 mph 26.5 mph 0.01 in   Mostly Cloudy
10:15 AM 66.2 °F 62.6 °F 88% 29.78 in 10.0 mi SE 13.8 mph 23.0 mph N/A   Mostly Cloudy
10:35 AM 66.2 °F 60.8 °F 83% 29.77 in 10.0 mi SE 16.1 mph 26.5 mph N/A   Mostly Cloudy
10:55 AM 68.0 °F 60.8 °F 78% 29.78 in 9.0 mi ESE 12.7 mph 28.8 mph N/A   Mostly Cloudy
11:15 AM 68.0 °F 62.6 °F 83% 29.79 in 10.0 mi SE 15.0 mph 20.7 mph N/A   Scattered Clouds
11:35 AM 71.6 °F 62.6 °F 73% 29.77 in 10.0 mi SE 18.4 mph 25.3 mph N/A   Partly Cloudy
11:55 AM 69.8 °F 62.6 °F 78% 29.78 in 10.0 mi SE 15.0 mph 21.9 mph 0.01 in   Scattered Clouds
12:15 PM 69.8 °F 62.6 °F 78% 29.78 in 10.0 mi SE 11.5 mph 18.4 mph N/A   Overcast
12:35 PM 71.6 °F 62.6 °F 73% 29.77 in 10.0 mi SE 18.4 mph - N/A   Mostly Cloudy
12:55 PM 73.4 °F 64.4 °F 73% 29.77 in 10.0 mi SE 10.4 mph 17.3 mph N/A   Partly Cloudy
1:15 PM 73.4 °F 62.6 °F 69% 29.75 in 10.0 mi SE 16.1 mph 25.3 mph N/A   Clear
1:35 PM 73.4 °F 64.4 °F 73% 29.73 in 10.0 mi SE 15.0 mph 24.2 mph N/A   Clear
1:55 PM 75.2 °F 64.4 °F 69% 29.74 in 10.0 mi SE 16.1 mph - N/A   Partly Cloudy
2:15 PM 73.4 °F 64.4 °F 73% 29.73 in 10.0 mi SE 15.0 mph 24.2 mph N/A   Mostly Cloudy
2:35 PM 73.4 °F 64.4 °F 73% 29.72 in 10.0 mi SE 15.0 mph 24.2 mph N/A   Overcast
2:55 PM 73.4 °F 64.4 °F 73% 29.72 in 10.0 mi SE 16.1 mph 21.9 mph N/A   Overcast
3:15 PM 73.4 °F 66.2 °F 78% 29.73 in 10.0 mi SSE 13.8 mph - N/A   Overcast
3:35 PM 73.4 °F 66.2 °F 78% 29.72 in 10.0 mi SE 13.8 mph 23.0 mph N/A   Mostly Cloudy
3:55 PM 73.4 °F 66.2 °F 78% 29.72 in 10.0 mi SSE 11.5 mph 24.2 mph N/A   Mostly Cloudy
4:15 PM 73.4 °F 68.0 °F 83% 29.72 in 10.0 mi SE 10.4 mph 18.4 mph N/A   Overcast
4:35 PM 75.2 °F 68.0 °F 78% 29.71 in 10.0 mi SE 13.8 mph 19.6 mph N/A   Mostly Cloudy
4:55 PM 75.2 °F 68.0 °F 78% 29.70 in 10.0 mi ESE 9.2 mph 17.3 mph N/A   Overcast
5:15 PM 75.2 °F 68.0 °F 78% 29.70 in 10.0 mi SE 10.4 mph 18.4 mph N/A   Mostly Cloudy
5:35 PM 75.2 °F 68.0 °F 78% 29.69 in 10.0 mi SE 10.4 mph - N/A   Mostly Cloudy
5:55 PM 75.2 °F 69.8 °F 83% 29.67 in 10.0 mi SE 10.4 mph 18.4 mph N/A   Partly Cloudy
6:15 PM 75.2 °F 68.0 °F 78% 29.66 in 10.0 mi SE 15.0 mph 20.7 mph N/A   Clear
6:35 PM 75.2 °F 69.8 °F 83% 29.65 in 10.0 mi SE 12.7 mph - N/A   Clear
6:55 PM 75.2 °F 69.8 °F 83% 29.65 in 10.0 mi SE 12.7 mph 19.6 mph N/A   Clear
7:15 PM 75.2 °F 69.8 °F 83% 29.64 in 9.0 mi SE 16.1 mph - N/A   Partly Cloudy
7:35 PM 73.4 °F 69.8 °F 88% 29.64 in 10.0 mi SE 12.7 mph - N/A   Scattered Clouds
7:55 PM 73.4 °F 68.0 °F 83% 29.64 in 9.0 mi South 19.6 mph 29.9 mph 0.02 in   Mostly Cloudy
8:15 PM 73.4 °F 69.8 °F 88% 29.68 in 10.0 mi SW 11.5 mph 18.4 mph N/A   Mostly Cloudy
8:35 PM 73.4 °F 62.6 °F 69% 29.70 in 10.0 mi SW 16.1 mph 25.3 mph N/A   Mostly Cloudy
8:55 PM 71.6 °F 60.8 °F 69% 29.72 in 10.0 mi WSW 12.7 mph - N/A   Mostly Cloudy
9:15 PM 71.6 °F 59.0 °F 64% 29.73 in 10.0 mi WSW 17.3 mph 27.6 mph N/A   Overcast
9:35 PM 69.8 °F 55.4 °F 60% 29.76 in 10.0 mi WSW 17.3 mph 27.6 mph N/A   Overcast
9:55 PM 68.0 °F 53.6 °F 60% 29.77 in 10.0 mi WSW 16.1 mph 25.3 mph N/A   Overcast
10:15 PM 66.2 °F 50.0 °F 56% 29.79 in 10.0 mi WSW 12.7 mph 23.0 mph N/A   Overcast
10:35 PM 64.4 °F 50.0 °F 59% 29.79 in 10.0 mi West 15.0 mph 24.2 mph N/A   Overcast
10:55 PM 62.6 °F 48.2 °F 59% 29.80 in 10.0 mi West 13.8 mph 20.7 mph N/A   Overcast
11:15 PM 60.8 °F 48.2 °F 63% 29.81 in 10.0 mi WSW 10.4 mph 18.4 mph N/A   Overcast
11:35 PM 59.0 °F 48.2 °F 67% 29.82 in 10.0 mi WSW 11.5 mph - N/A   Overcast
11:55 PM 59.0 °F 48.2 °F 67% 29.83 in 10.0 mi WSW 12.7 mph - N/A   Overcast